User: anonymous   Login
Location: Unspecified
(0.0000°N, 0.0000°E)
Time: 23:00:37
(UTC+00:00)
Language:

CENTAURI-1 - Orbit

View from above orbital plane
View from above orbital plane
View from above satellite
View from above satellite

Ground track
Ground track

The orbit is defined by the following mean orbital elements,

1 43809U          26145.56996764 +.00000000 +00000-0 +27881-3 0 00006
2 43809  97.4237 197.7773 0015352  52.0736 308.1882 15.16092711    01
Epoch (UTC): 25 May 2026 13:40:45
Eccentricity: 0.0015352
inclination: 97.4237°
perigee height: 507 km
apogee height: 528 km
right ascension of ascending node: 197.7773°
argument of perigee: 52.0736°
revolutions per day: 15.16092711
mean anomaly at epoch: 308.1882°

The dashed part of the orbit path shows where the satellite is in the earth's shadow,  

DLR